Tracking 19903 objects as of 16-Oct-2019
HD Live streaming from Space Station
objects crossing your sky now

FENGYUN 1C DEB

Track FENGYUN 1C DEB now!
10-day predictions


NORAD ID: 32210
Int'l Code: 1999-025CVG
Perigee: 834.5 km
Apogee: 945.6 km
Inclination: 99.1 °
Period: 102.6 minutes
Semi major axis: 7261 km
RCS: 0.0144 m2 (small)
Launch date: May 10, 1999
Source: People's Republic of China (PRC)
Launch site: Taiyaun Space Center, China (TSC)

Note: This is SATELLITE DEBRIS
aabbcc
Your satellite tracking list
Your tracking list is empty




NASA's NSSDC Master Catalog

Two Line Element Set (TLE):
1 32210U 99025CVG 19286.31128811 +.00000466 +00000-0 +32004-3 0  9992
2 32210 099.0739 324.6765 0076514 340.3864 019.4363 14.03158246297391
Source of the keplerian elements: AFSPC